GW4438 Weather Reports


Display with metric or nautical units.
time (UTC)temp
F
wind
direction
speed
MPH
gust
MPH
rain 1hr
in
rain 24hr
in
rain mn
in
humidity
%
barometer
mb
20260504060110 57 96 0.0 4.0 0.00 0.01 0.00 55 1018.7
20260504050119 54 304 0.0 1.0 0.00 0.04 0.00 63 1018.3
20260504044512 51 304 0.0 3.0 0.00 0.04 0.00 67 1018.2
20260504043043 50 306 0.0 2.0 0.00 0.04 0.00 68 1018.1
20260504041539 47 342 0.0 1.0 0.00 0.04 0.00 72 1018.2
20260504040106 45 342 0.0 0.0 0.00 0.04 0.00 74 1018.1
20260504034633 45 342 0.0 0.0 0.00 0.04 0.00 74 1017.9
20260504033002 45 342 0.0 0.0 0.00 0.04 0.00 74 1018.0
20260504031516 45 342 0.0 1.0 0.00 0.04 0.00 73 1017.9
20260504030053 46 343 0.0 2.0 0.00 0.04 0.00 72 1017.8
20260504024554 47 348 0.0 1.0 0.00 0.04 0.00 70 1017.9
20260504023105 48 348 0.0 2.0 0.00 0.04 0.00 68 1017.8
20260504021614 48 300 0.0 3.0 0.00 0.04 0.00 67 1017.7
20260504020134 48 299 0.0 2.0 0.00 0.04 0.00 67 1017.9
20260504014516 49 291 1.0 3.0 0.00 0.04 0.00 65 1017.9
20260504013108 49 270 0.0 2.0 0.00 0.04 0.00 65 1017.8
20260504011601 49 271 0.0 1.0 0.00 0.04 0.00 64 1017.8
20260504010110 49 271 0.0 2.0 0.00 0.04 0.00 65 1017.8
20260504004623 48 271 0.0 2.0 0.00 0.04 0.00 64 1017.9
20260504003005 48 271 0.0 1.0 0.00 0.04 0.00 65 1017.9
20260504001524 48 271 0.0 2.0 0.00 0.04 0.00 65 1017.8
20260504000055 48 269 1.0 3.0 0.00 0.04 0.00 66 1017.8
20260503234607 48 254 0.0 2.0 0.00 0.04 0.00 66 1017.9
20260503233118 48 254 0.0 2.0 0.00 0.04 0.00 66 1017.8
20260503231630 48 255 0.0 2.0 0.00 0.04 0.00 66 1018.0
20260503230117 49 255 0.0 1.0 0.00 0.06 0.00 65 1018.0
20260503224503 50 255 0.0 3.0 0.00 0.06 0.00 63 1017.9
20260503223041 49 255 1.0 2.0 0.00 0.06 0.00 65 1017.8
20260503221531 49 57 0.0 1.0 0.00 0.06 0.00 65 1018.0
20260503220106 50 123 0.0 1.0 0.00 0.06 0.00 64 1018.1
20260503214619 51 124 1.0 6.0 0.00 0.06 0.00 61 1018.1
20260503213004 51 113 1.0 4.0 0.00 0.06 0.00 60 1018.1
20260503211516 51 79 0.0 5.0 0.00 0.06 0.00 61 1018.1
20260503210053 51 98 1.0 5.0 0.00 0.06 0.06 60 1018.3
20260503204621 51 86 0.0 2.0 0.00 0.06 0.06 61 1018.2
20260503203110 52 92 2.0 11.0 0.00 0.06 0.06 60 1018.3
20260503201617 52 117 6.0 10.0 0.00 0.06 0.06 59 1018.3
20260503200127 52 109 3.0 7.0 0.00 0.06 0.06 59 1018.2
20260503194509 53 134 4.0 12.0 0.00 0.06 0.06 57 1018.2
20260503193033 53 122 5.0 16.0 0.00 0.06 0.06 57 1018.2
20260503191608 53 110 2.0 13.0 0.00 0.06 0.06 56 1018.2
20260503184618 53 125 1.0 10.0 0.00 0.06 0.06 57 1017.8
20260503183116 53 107 3.0 8.0 0.00 0.06 0.06 57 1017.8
20260503181627 53 103 3.0 8.0 0.00 0.06 0.06 58 1017.5
20260503180008 53 98 2.0 8.0 0.00 0.06 0.06 57 1017.2
20260503174516 53 96 2.0 10.0 0.00 0.06 0.06 56 1017.1
20260503173053 54 127 3.0 6.0 0.00 0.06 0.06 55 1017.0
20260503171602 54 168 3.0 7.0 0.00 0.06 0.06 54 1016.9
20260503170119 54 95 3.0 12.0 0.00 0.06 0.06 52 1016.8
20260503150125 57 193 9.0 17.0 0.00 0.06 0.06 46 1016.1
20260503120119 56 102 6.0 14.0 0.00 0.06 0.06 52 1016.3
20260503110104 53 107 6.0 14.0 0.00 0.06 0.06 62 1016.5
20260503090123 53 255 5.0 15.0 0.00 0.06 0.06 58 1016.6
20260503081557 51 239 3.0 9.0 0.00 0.06 0.06 63 1016.0
20260503080110 51 162 4.0 10.0 0.00 0.06 0.06 63 1016.3
20260503071506 48 87 3.0 7.0 0.00 0.06 0.06 74 1015.9